AO-07 1 07530U 74089B 22279.73913248 -.00000007 00000-0 24505-3 0 9999 2 07530 101.9186 260.0092 0012041 187.4194 223.9579 12.53657574191658 UO-11 1 14781U 84021B 22279.52208296 .00001870 00000-0 23146-3 0 9997 2 14781 97.6291 261.9648 0007444 326.2745 33.7995 14.83849575 56518 AO-16 1 20439U 90005D 22279.51689095 .00000265 00000-0 11400-3 0 9999 2 20439 98.8578 258.6342 0009966 222.7428 251.4725 14.32939642708578 LO-19 1 20442U 90005G 22279.46332266 .00000260 00000-0 11139-3 0 9996 2 20442 98.8082 246.0912 0011287 198.0434 162.0351 14.33092986709000 HUBBLE 1 20580U 90037B 22279.35897308 .00004631 00000-0 25965-3 0 9993 2 20580 28.4693 153.7190 0002546 148.0629 15.4891 15.10984395583001 MET-2/21 1 22782U 93055A 22279.56747622 .00000085 00000-0 62809-4 0 9996 2 22782 82.5450 286.0459 0023090 38.6649 80.0581 13.83861307469372 AO-27 1 22825U 93061C 22279.33216824 .00000161 00000-0 79858-4 0 9998 2 22825 98.8784 312.6686 0009515 89.2735 270.9536 14.30196329514001 IO-26 1 22826U 93061D 22279.53830879 .00000170 00000-0 83001-4 0 9998 2 22826 98.8729 312.7516 0010009 76.5404 283.6892 14.30545403514294 FO-29 1 24278U 96046B 22279.49516973 .00000061 00000-0 98621-4 0 9991 2 24278 98.5156 287.8997 0350220 355.3429 4.4481 13.53121427290621 NOAA-15 1 25338U 98030A 22279.69084075 .00000215 00000-0 10782-3 0 9991 2 25338 98.6367 307.7332 0009842 339.1626 20.9151 14.26178246269129 GO-32 1 25397U 98043D 22279.46465347 .00000140 00000-0 80870-4 0 9993 2 25397 98.8296 230.2809 0002016 120.0622 240.0757 14.23775380259221 ISS 1 25544U 98067A 22279.93524098 .00089579 00000-0 15703-2 0 9998 2 25544 51.6409 142.9524 0003311 259.7876 227.7736 15.49807313362518 NO-44 1 26931U 01043C 22279.81151861 .00000216 00000-0 11415-3 0 9996 2 26931 67.0498 130.9586 0005639 258.8795 101.1672 14.30741077 97497 SO-50 1 27607U 02058C 22279.42334552 .00001779 00000-0 26257-3 0 9996 2 27607 64.5549 322.2800 0081659 273.2658 85.9105 14.76288885 64753 CO-55 1 27844U 03031E 22279.56307903 .00000438 00000-0 21579-3 0 9999 2 27844 98.6814 285.5854 0010596 135.6204 224.5825 14.22506440999667 CO-57 1 27848U 03031J 22279.77198321 .00000378 00000-0 19053-3 0 9995 2 27848 98.6856 286.2864 0010286 148.6663 211.5129 14.22056320999531 RS-22 1 27939U 03042A 22279.81601943 .00001690 00000-0 30667-3 0 9994 2 27939 98.2082 60.6157 0012332 211.9029 148.1441 14.67506509 17375 NOAA-18 1 28654U 05018A 22279.82268725 .00000230 00000-0 14805-3 0 9997 2 28654 98.9397 350.1213 0014430 20.9910 339.1852 14.12785318895799 CO-58 1 28895U 05043F 22279.34522505 .00002192 00000-0 42163-3 0 9995 2 28895 98.1217 49.1173 0017223 148.9303 211.2922 14.64528084903643 Falconsat-3 1 30776U 07006E 22279.35643597 .00118998 00000-0 12572-2 0 9995 2 30776 35.4280 249.4819 0003231 238.4957 121.5462 15.62841955866884 CO-65 1 32785U 08021C 22279.79267088 .00004985 00000-0 52218-3 0 9992 2 32785 97.6705 247.2106 0011388 218.6418 141.3986 14.89970546783131 AAUSAT2 1 32788U 08021F 22278.93077160 .00009211 00000-0 77650-3 0 9994 2 32788 97.5438 260.4500 0012409 107.2430 253.0152 14.98328095784978 DO-64 1 32789U 08021G 22279.51825563 .00026557 00000-0 13708-2 0 9993 2 32789 97.3338 301.9388 0007648 302.7084 57.3411 15.16268271788749 CO-66 1 32791U 08021J 22278.90001211 .00005377 00000-0 51886-3 0 9991 2 32791 97.6241 251.7253 0012615 173.5826 186.5558 14.93214641783679 RS-30 1 32953U 08025A 22279.36408890 .00000024 00000-0 10000-3 0 9997 2 32953 82.4988 114.9731 0019821 19.8383 340.3460 12.43113709652118 PRISM 1 33493U 09002B 22279.52941265 .00010717 00000-0 84687-3 0 9991 2 33493 98.2447 272.5335 0014292 169.7731 190.3785 15.00788134745632 NOAA-19 1 33591U 09005A 22279.69494692 .00000226 00000-0 14719-3 0 9991 2 33591 99.1385 316.1203 0013161 233.1556 126.8409 14.12617983704150 SRMSAT 1 37841U 11058D 22279.46683059 .00000511 00000-0 13589-3 0 9997 2 37841 19.9724 303.8755 0012040 123.1433 17.6289 14.10778110566934 HRBE 1 37855U 11061F 22279.45392735 .00021355 00000-0 88578-3 0 9992 2 37855 101.7207 97.5567 0147195 89.2553 272.5526 15.14532947598020 RS-40 1 38735U 12041C 22279.44727733 .00000041 00000-0 22518-3 0 9999 2 38735 82.4798 196.2927 0017558 125.5862 234.6854 12.42587537462308 ZACUBE-1 1 39417U 13066B 22279.46413243 .00005163 00000-0 62711-3 0 9994 2 39417 97.6494 246.0422 0058522 41.9295 318.6378 14.82705548479579 Delfi-N3xt 1 39428U 13066N 22279.38870862 .00006082 00000-0 93052-3 0 9994 2 39428 97.8162 209.0157 0114831 283.4117 75.4311 14.69692972474820 GOMX-1 1 39430U 13066Q 22279.45784006 .00001994 00000-0 35991-3 0 9994 2 39430 97.7979 180.2727 0150152 55.1386 306.3891 14.60412063472491 LO-74 1 39440U 13066AA 22279.41197589 .00003225 00000-0 43798-3 0 9998 2 39440 97.7374 232.3855 0079396 130.6744 230.1403 14.77321681476668 AO-73 1 39444U 13066AE 22279.46500802 .00006584 00000-0 77678-3 0 9998 2 39444 97.6368 248.4665 0057038 29.6938 330.7494 14.83868624477985 SPROUT 1 39770U 14029E 22279.88490734 .00012803 00000-0 12594-2 0 9994 2 39770 97.9500 37.6606 0009469 87.1625 273.0854 14.92207540454278 DTUSAT-2 1 40030U 14033W 22279.50913444 .00005643 00000-0 58449-3 0 9991 2 40030 97.9408 212.7651 0012977 53.3497 306.8912 14.90381553450183 EO-80 1 40032U 14033Y 22279.55053481 .00005422 00000-0 56218-3 0 9991 2 40032 97.9409 212.8216 0012802 53.9247 306.3154 14.90355571450162 HODOYOSHI-1 1 40299U 14070B 22279.52257390 .00008797 00000-0 32435-3 0 9992 2 40299 97.2326 344.3825 0013802 102.6736 9.7624 15.27936482440017 FIREBIRD FU3 1 40377U 15003B 22279.26101155 .00044007 00000-0 11883-2 0 9991 2 40377 99.0818 169.0690 0093298 9.9933 350.3131 15.33259704425379 FIREBIRD FU4 1 40378U 15003C 22279.67068017 .00043730 00000-0 11760-2 0 9992 2 40378 99.0824 169.8090 0093072 8.1967 352.0764 15.33404841425451 GRIFEX 1 40379U 15003D 22279.60184502 .00024435 00000-0 81225-3 0 9999 2 40379 99.0948 154.3406 0111845 54.2334 306.9236 15.25281323424560 XW-2A 1 40903U 15049E 22279.81444277 .00047122 00000-0 61753-3 0 9995 2 40903 97.1658 338.7656 0009735 74.2388 37.4784 15.58387498396579 XW-2C 1 40906U 15049H 22279.81688463 .00009532 00000-0 44277-3 0 9990 2 40906 97.4971 282.4339 0012397 338.6549 99.6839 15.20147352389834 XW-2D 1 40907U 15049J 22279.85419588 .00011187 00000-0 50697-3 0 9997 2 40907 97.4967 282.5579 0011835 334.8437 109.3273 15.20961062389896 LILACSAT-2 1 40908U 15049K 22279.51238624 .00005195 00000-0 27025-3 0 9992 2 40908 97.5223 279.0641 0014989 359.5031 122.1827 15.16390346389312 XW-2E 1 40909U 15049L 22279.54183203 .00016622 00000-0 65843-3 0 9995 2 40909 97.4668 287.0511 0010020 310.9195 168.2374 15.25446493390331 XW-2F 1 40910U 15049M 22279.57411001 .00016778 00000-0 67528-3 0 9994 2 40910 97.4753 286.2463 0010315 312.0636 166.9100 15.24908754390104 XW-2B 1 40911U 15049N 22279.56462544 .00010566 00000-0 48102-3 0 9998 2 40911 97.4958 282.8337 0011367 336.8907 138.2261 15.20825059389736 DCBB 1 40912U 15049P 22279.54120319 .00019149 00000-0 69548-3 0 9991 2 40912 97.4366 290.5610 0009743 268.6092 217.3428 15.28297260390700 TW-1A 1 40928U 15051D 22279.54369900 .00120423 00000-0 96266-3 0 9997 2 40928 97.0300 301.8947 0003499 354.4651 133.8994 15.70722846395601 IO-86 1 40931U 15052B 22278.79875539 .00001107 00000-0 64526-4 0 9990 2 40931 5.9955 101.8421 0013897 294.8018 65.0751 14.76874213379689 AO-85 1 40967U 15058D 22278.50163637 .00003501 00000-0 38763-3 0 5004 2 40967 64.7720 97.0238 0180753 164.3478 196.3404 14.77798131 76929 ATHENOXAT-1 1 41168U 15077C 22279.54604716 .00030507 00000-0 11916-2 0 9990 2 41168 14.9811 345.4631 0007439 13.3006 25.7177 15.23765113377266 ChubuSat-2 1 41338U 16012B 22278.61690549 .00004529 00000-0 33280-3 0 9999 2 41338 31.0039 42.2783 0013117 166.0123 194.0878 15.01747725364059 ChubuSat-3 1 41339U 16012C 22279.68889711 .00003515 00000-0 25655-3 0 9990 2 41339 31.0110 32.3573 0012742 185.6836 285.4936 15.01802049364217 Horyu-4 1 41340U 16012D 22279.56716735 .00007957 00000-0 55561-3 0 9997 2 41340 31.0058 9.2044 0012877 226.5030 133.4537 15.03966352364462 e-st@r-II 1 41459U 16025D 22279.48137502 .00021376 00000-0 87858-3 0 9997 2 41459 98.1940 93.1111 0138673 251.6402 106.9803 15.15745448354306 AAUSAT4 1 41460U 16025E 22279.44352257 .00040814 00000-0 14186-2 0 9992 2 41460 98.1834 100.3845 0116577 223.6179 135.6298 15.23292977354810 LO-87 1 41557U 16033B 22279.60211964 .00024643 00000-0 67300-3 0 9994 2 41557 97.3891 17.6846 0009688 345.3335 138.6968 15.37356089354448 NuSat2 1 41558U 16033C 22279.75830197 .00025018 00000-0 64246-3 0 9999 2 41558 97.4115 24.1744 0009320 332.8374 176.8671 15.39255772354754 Lapan A3 1 41603U 16040E 22279.84503230 .00002237 00000-0 10374-3 0 9994 2 41603 97.1977 311.9819 0014535 125.0289 47.1972 15.20948807348967 Pratham 1 41783U 16059A 22279.05817927 .00000770 00000-0 15641-3 0 9999 2 41783 97.9033 316.1308 0033342 182.1501 177.9563 14.63445114321806 TY-1 1 41844U 16066D 22279.50053645 .00021991 00000-0 68903-3 0 9991 2 41844 97.3894 291.1837 0009863 248.8738 264.7789 15.33051170328608 CAS-2T 1 41847U 16066G 22279.75925601 .00001611 00000-0 25204-3 0 9995 2 41847 98.5396 344.2605 0362291 236.7820 119.8152 14.38759563310351 EO-88 1 42017U 17008BX 22279.17022934 .00040346 00000-0 10721-2 0 9990 2 42017 97.2579 343.8510 0004348 189.5537 170.5626 15.38138090314076 CAS-4B 1 42759U 17034B 22279.54577495 .00005611 00000-0 32741-3 0 9993 2 42759 43.0167 80.0440 0011172 271.5302 198.5029 15.12653460293177 CAS-4A 1 42761U 17034D 22279.57028346 .00006252 00000-0 36241-3 0 9996 2 42761 43.0176 78.6175 0011268 272.9356 169.9648 15.12741265293189 NIUSat 1 42766U 17036B 22279.06500637 .00015893 00000-0 58095-3 0 9997 2 42766 97.1932 312.9972 0011235 297.3596 62.6500 15.28104415293682 Aalto 1 1 42775U 17036L 22279.36457192 .00015005 00000-0 56706-3 0 9999 2 42775 97.1887 312.9978 0010291 296.7838 63.2348 15.27026597293691 URSA MAIOR 1 42776U 17036M 22279.36569150 .00016497 00000-0 61005-3 0 9992 2 42776 97.1900 313.8483 0009919 294.9610 65.0599 15.27728055293733 Max Valier Sat 1 42778U 17036P 22279.66982646 .00018791 00000-0 67492-3 0 9991 2 42778 97.1950 316.9985 0008586 293.9580 66.0761 15.28671800293889 Pegasus 1 42784U 17036V 22279.63218009 .00022531 00000-0 74906-3 0 9995 2 42784 97.1893 318.0541 0007728 293.4743 66.5686 15.31158385294015 NUDATSat 1 42787U 17036Y 22279.60642536 .00038285 00000-0 10287-2 0 9995 2 42787 97.1910 323.0739 0005639 258.4578 101.6034 15.37800252294155 SUCHAI 1 1 42788U 17036Z 22279.35220797 .00030406 00000-0 93904-3 0 9994 2 42788 97.1889 319.7489 0006908 286.4917 73.5566 15.33468049294161 SKCUBE 1 42789U 17036AA 22279.08569680 .00024782 00000-0 79218-3 0 9994 2 42789 97.1893 318.8131 0007075 290.4037 69.6445 15.32407418294002 VZLUSAT 1 1 42790U 17036AB 22279.10668109 .00042482 00000-0 11507-2 0 9998 2 42790 97.1912 322.5273 0005699 274.3563 85.7031 15.37526079294224 VENTA 1 1 42791U 17036AC 22279.36552099 .00023109 00000-0 75951-3 0 9996 2 42791 97.1898 318.8617 0006893 290.6951 69.3552 15.31529620294020 Robusta 1B 1 42792U 17036AD 22279.78112767 .00028750 00000-0 89620-3 0 9992 2 42792 97.1890 320.1469 0006611 286.3165 73.7350 15.33184578294162 D-SAT 1 42794U 17036AF 22279.74724055 .00005386 00000-0 44985-3 0 9994 2 42794 97.4560 279.3353 0123848 72.7575 288.7155 14.93074898288119 TechnoSat 1 42829U 17042E 22279.54895612 .00002563 00000-0 25680-3 0 9991 2 42829 97.4084 127.1548 0014046 2.5487 357.5802 14.92112217284653 AO-91 1 43017U 17073E 22279.25444105 .00007131 00000-0 53061-3 0 9990 2 43017 97.6586 168.8841 0245905 184.4014 175.5041 14.82159016263529 PICSAT 1 43132U 18004X 22279.48165637 .00028546 00000-0 86006-3 0 9996 2 43132 97.3642 355.4011 0006223 329.4331 30.6549 15.34272070263417 AO-92 1 43137U 18004AC 22278.21163228 .00021397 00000-0 70679-3 0 9991 2 43137 97.3603 352.4654 0006601 342.7686 17.3330 15.31386808263131 TianYi 2 1 43155U 18008A 22279.52499613 .00012027 00000-0 61395-3 0 9995 2 43155 97.3408 334.3776 0017313 115.8048 351.6373 15.16723142260105 Zhou Enlai 1 43156U 18008B 22279.55987791 .00013350 00000-0 68521-3 0 9996 2 43156 97.3455 334.3242 0014290 114.7408 21.3977 15.16550262260039 TianYi 6 1 43158U 18008D 22279.40463014 .00010944 00000-0 58259-3 0 9992 2 43158 97.3389 331.9117 0013052 113.4318 258.2432 15.15324097259907 S-Net D 1 43186U 18014G 22279.23976528 .00003825 00000-0 32623-3 0 9997 2 43186 97.6479 182.8219 0009000 292.1256 67.9011 14.98286146255503 S-Net B 1 43187U 18014H 22279.64075652 .00003642 00000-0 31081-3 0 9995 2 43187 97.6474 183.1610 0009067 290.3618 69.6630 14.98285769255565 S-Net A 1 43188U 18014J 22279.30714364 .00003734 00000-0 31855-3 0 9990 2 43188 97.6479 182.9039 0009045 292.0458 67.9803 14.98283447255519 S-Net C 1 43189U 18014K 22279.24126712 .00003687 00000-0 31467-3 0 9994 2 43189 97.6473 182.7568 0009085 292.2709 67.7550 14.98278626254052 FMN 1 1 43192U 18015A 22279.52859421 .00063087 00000-0 13434-2 0 9993 2 43192 97.5477 68.1777 0009755 346.6960 78.4067 15.44678468260559 Shaonian Xing 1 43199U 18015H 22279.60076297 .00033595 00000-0 90129-3 0 9999 2 43199 97.5282 62.2477 0012753 7.0407 125.3051 15.37810833260504 SurfSat 1 43614U 18070B 22279.54302641 .00103590 00000-0 10604-2 0 9992 2 43614 93.0144 146.1273 0005200 307.4045 52.6749 15.64658308228376 CP-7 DAVE 1 43615U 18070C 22279.16136494 .00091582 00000-0 10349-2 0 9995 2 43615 93.0133 145.6805 0006191 316.3592 43.7184 15.62153417228267 CubeBel-1 1 43666U 18083E 22279.82802168 .00015804 00000-0 63326-3 0 9993 2 43666 97.4148 307.3391 0010537 305.0184 229.2072 15.25066640218441 Changshagaoxin 1 43669U 18083H 22279.58862617 .00014441 00000-0 60919-3 0 9995 2 43669 97.4092 302.7350 0007984 309.1183 171.2596 15.23374462218216 Ten-Koh 1 43677U 18084G 22279.32954454 .00003477 00000-0 35365-3 0 9992 2 43677 97.9794 50.5002 0014365 265.8580 94.0996 14.91370811214200 PO-101 1 43678U 18084H 22279.42399168 .00001867 00000-0 18826-3 0 9993 2 43678 97.9868 54.1019 0008505 281.6509 78.3758 14.92352417214403 IRVINE 01 1 43693U 18088D 22279.35076877 .00118918 00000-0 23581-2 0 9994 2 43693 85.0253 235.2251 0014137 70.9141 289.3644 15.46490508217309 QO-100 1 43700U 18090A 22279.50463852 .00000126 00000-0 00000-0 0 9996 2 43700 0.0181 231.1610 0002404 352.3987 359.0759 1.00272367 14143 Reaktor Hello World 1 43743U 18096AA 22279.21169552 .00029585 00000-0 82482-3 0 9994 2 43743 97.3461 358.7515 0014399 26.9030 333.2958 15.36618487214956 MinXSS-2 1 43758U 18099A 22279.15942816 .00005890 00000-0 50341-3 0 9990 2 43758 97.6147 344.3857 0013516 252.8046 107.1697 14.97946328209678 AO-95 1 43770U 18099N 22279.70675247 .00005417 00000-0 47569-3 0 9999 2 43770 97.6096 343.1366 0012952 261.3394 98.6361 14.96925972209652 RANGE-B 1 43772U 18099Q 22279.38287377 .00007376 00000-0 63334-3 0 9992 2 43772 97.6212 344.7706 0012602 246.7996 113.1899 14.97689839209633 RANGE-A 1 43773U 18099R 22279.46289094 .00004820 00000-0 42988-3 0 9993 2 43773 97.6030 341.5952 0011500 247.3243 112.6763 14.96390763209591 MOVE-II 1 43780U 18099Y 22279.15952255 .00009367 00000-0 78549-3 0 9996 2 43780 97.6151 344.0228 0011445 259.0477 100.9458 14.98544323209635 SNUSat 2 1 43782U 18099AA 22279.14109026 .00005880 00000-0 51442-3 0 9996 2 43782 97.6116 343.0767 0010561 246.2586 113.7529 14.97061958209595 SnugLite 1 43784U 18099AC 22279.42872504 .00005350 00000-0 46521-3 0 9991 2 43784 97.6066 342.9843 0013407 255.5279 104.4456 14.97317511209661 ITASat 1 1 43786U 18099AE 22279.15670379 .00004150 00000-0 36494-3 0 9994 2 43786 97.6135 343.5772 0013242 256.2968 103.6780 14.97005698209614 EAGLET 1 1 43790U 18099AJ 22279.37584007 .00003903 00000-0 34278-3 0 9998 2 43790 97.6116 344.3343 0011949 258.3305 101.6576 14.97098570209387 ESEO 1 43792U 18099AL 22279.42400749 .00001780 00000-0 16191-3 0 9991 2 43792 97.6072 343.4278 0011649 256.4484 103.5440 14.96402631209423 CSIM 1 43793U 18099AM 22279.14972255 .00009633 00000-0 79379-3 0 9999 2 43793 97.6187 345.0269 0009937 247.2626 112.7548 14.99224714209464 Astrocast 0.1 1 43798U 18099AS 22279.15456514 .00007005 00000-0 59247-3 0 9993 2 43798 97.6155 344.7680 0010461 232.5764 127.4507 14.98314992209680 JO-97 1 43803U 18099AX 22279.46835763 .00006904 00000-0 59431-3 0 9993 2 43803 97.6099 343.6724 0012668 251.7517 108.2327 14.97615754209687 Suomi 100 1 43804U 18099AY 22279.82836771 .00004931 00000-0 42725-3 0 9990 2 43804 97.6090 343.9227 0013463 252.9674 107.0074 14.97488720209745 Al Farabi 2 1 43805U 18099AZ 22279.70177728 .00006214 00000-0 52731-3 0 9992 2 43805 97.6099 344.4189 0013418 251.7636 108.2140 14.98203132209754 CHOMPTT 1 43855U 18104G 22279.42257146 .00017463 00000-0 61101-3 0 9995 2 43855 85.0365 337.0907 0014901 177.8950 182.2361 15.29290391211676 ISAT 1 43879U 18111D 22279.26111240 .00007414 00000-0 62196-3 0 9995 2 43879 97.6524 182.8445 0011639 310.7325 49.2886 14.98601877206263 UWE-4 1 43880U 18111E 22279.72117708 .00006447 00000-0 53978-3 0 9996 2 43880 97.6565 184.0669 0011234 311.3832 48.6425 14.98733126204367 Sparrow 1 43881U 18111F 22278.32423465 .00006931 00000-0 57735-3 0 9995 2 43881 97.6572 182.9663 0011467 312.4902 47.5351 14.98902505206160 Lume 1 1 43908U 18111AJ 22279.66571235 .00023036 00000-0 73300-3 0 9993 2 43908 97.1736 164.0103 0019031 42.0211 318.2487 15.32413176210412 FO-99 1 43937U 19003F 22279.34933662 .00027886 00000-0 86180-3 0 9994 2 43937 97.1225 308.5099 0021261 115.0695 245.2758 15.33259953206957 MYSat 1 1 44045U 18092F 22279.30190316 .00167427 00000-0 14917-2 0 9993 2 44045 51.6260 235.2620 0008962 137.3936 222.7756 15.67356518205179 AstroCast 0.2 1 44083U 19018F 22279.63942483 .00029440 00000-0 10344-2 0 9992 2 44083 97.3105 336.4703 0010801 93.7053 266.5423 15.29281190195460 AISTechSat 3 1 44103U 19018AB 22279.72636663 .00018750 00000-0 65863-3 0 9994 2 44103 97.2967 336.8208 0013194 100.2972 259.9757 15.29353689195643 AISat 1 1 44104U 19018AC 22279.49419318 .00017599 00000-0 46537-3 0 9992 2 44104 97.3908 3.1349 0051655 95.2534 265.4608 15.37080324196641 Prox-1 1 44339U 19036A 22279.47947467 .00008154 00000-0 17816-2 0 9995 2 44339 23.9999 212.2760 0009927 354.9014 5.1376 14.55673282174545 Oculus-ASR 1 44348U 19036K 22279.30539329 .00136702 -17694-5 10241-2 0 9990 2 44348 28.4972 140.6545 0194777 126.4716 235.4002 15.50038901181675 NO-104 1 44354U 19036R 22279.84608980 .00145188 -12073-5 99846-3 0 9999 2 44354 28.5208 119.3768 0181966 157.1919 203.6888 15.54015618181928 Move-IIb 1 44398U 19038N 22279.83557798 .00023940 00000-0 10704-2 0 9995 2 44398 97.6409 250.4373 0022876 102.1103 258.2705 15.21074876179953 SONATE 1 44400U 19038Q 22279.54633559 .00008700 00000-0 45846-3 0 9990 2 44400 97.6485 248.6873 0024852 106.9094 253.4871 15.15568783179759 BeeSat 9 1 44412U 19038AC 22279.42126580 .00018418 00000-0 88917-3 0 9994 2 44412 97.6474 249.7039 0021732 108.7450 251.6145 15.18508893179524 JAISAT-1 1 44419U 19038F 22279.50418971 .00017996 00000-0 85755-3 0 9995 2 44419 97.6479 250.7109 0020855 105.6712 254.6825 15.18983578179905 LightSail-2 1 44420U 19036AC 22278.28517260 .00303630 00000-0 24292-1 0 9990 2 44420 23.9985 123.3198 0001954 270.1344 89.8933 14.97530093173449 Taurus 1 1 44530U 19059C 22279.73118533 .00003170 00000-0 87394-3 0 9998 2 44530 98.5492 19.3539 0014492 141.2200 219.0115 14.47478779161943 Duchifat 3 1 44854U 19089C 22279.06737508 .00006276 00000-0 47803-3 0 9996 2 44854 36.9657 164.2689 0007950 28.9663 129.4005 15.01776011154565 OPS-SAT 1 44878U 19092F 22279.45436471 .00019982 00000-0 87858-3 0 9996 2 44878 97.4808 102.5977 0011215 317.6741 42.3629 15.21866744155066 TO-108 1 44881U 19093C 22279.45875673 .00000918 00000-0 12257-3 0 9992 2 44881 97.8856 357.0434 0014862 179.9398 180.1832 14.81844143151214 FloripaSat 1 1 44885U 19093G 22279.71807963 .00003096 00000-0 38222-3 0 9992 2 44885 97.8896 358.8940 0014506 184.0418 176.0713 14.83507031151348 RS-44 1 44909U 19096E 22279.36655942 .00000028 00000-0 59621-4 0 9990 2 44909 82.5225 156.6106 0218346 60.5092 301.7594 12.79715478129690 BY70-2 1 45857U 20042B 22279.47849068 .00014259 00000-0 18377-2 0 9994 2 45857 97.9490 355.3171 0011768 118.9623 241.2781 14.81101634121881 UPMSat 2 1 46276U 20061E 22279.14245137 .00009081 00000-0 43743-3 0 9995 2 46276 97.3819 347.4323 0002683 118.5119 241.6386 15.18961644115670 AmicalSat 1 46287U 20061R 22279.44449612 .00011181 00000-0 62399-3 0 9996 2 46287 97.4370 346.5407 0001135 221.1351 138.9795 15.13712122115254 SALSAT 1 46495U 20068K 22279.41683784 .00004525 00000-0 32285-3 0 9996 2 46495 97.7365 220.8205 0014489 260.8781 99.0805 15.04976645110879 BY70-3 1 46839U 20079N 22279.45513425 .00049253 00000-0 97267-3 0 9996 2 46839 97.1872 350.3693 0003631 279.2551 206.6732 15.46994306107370 CAPE 3 1 47309U 21002A 22279.43744396 .00019882 00000-0 74333-3 0 9991 2 47309 60.6824 306.5199 0038874 48.1616 312.2780 15.26715625 95388 AO-109 1 47311U 21002C 22279.32782054 .00017114 00000-0 63863-3 0 9997 2 47311 60.6853 304.3823 0035185 48.6222 311.7882 15.26998828 95388 MiTEE 1 1 47314U 21002F 22279.35790826 .00040445 00000-0 12058-2 0 9991 2 47314 60.6808 294.0184 0032786 41.4494 318.9076 15.33879778 95588 ExoCube 2 1 47319U 21002L 22279.35917753 .00017156 00000-0 64869-3 0 9997 2 47319 60.6831 305.5908 0036372 49.4190 311.0055 15.26522579 95337 UVSQ-SAT 1 47438U 21006AB 22279.67939131 .00012608 00000-0 64190-3 0 9996 2 47438 97.4261 336.4164 0010130 244.8569 115.1614 15.16898089 94138 YUSAT 1 1 47439U 21006AC 22279.14906172 .00015665 00000-0 78190-3 0 9999 2 47439 97.4266 336.0902 0009848 246.0205 113.9998 15.17543893 94069 SOMP 2b 1 47445U 21006AJ 22279.63775313 .00012571 00000-0 64748-3 0 9998 2 47445 97.4228 335.9418 0009821 249.8152 110.2025 15.16492309 94118 IDEASSat 1 47458U 21006AX 22279.63164337 .00012237 00000-0 63359-3 0 9996 2 47458 97.4324 336.5357 0009026 248.2570 111.7702 15.16322224 94107 CubeSX-Sirius-HSE 1 47951U 21022V 22279.46073678 .00007449 00000-0 48174-3 0 9997 2 47951 97.5164 176.6262 0022275 123.6357 340.1315 15.08273066 84721 CubeSX-HSE 1 47952U 21022W 22279.50091470 .00006850 00000-0 44273-3 0 9994 2 47952 97.5161 176.6934 0022236 122.5415 290.8268 15.08326036 84730 KSU-Cubesat 1 47954U 21022Y 22279.63498831 .00010067 00000-0 64296-3 0 9994 2 47954 97.5173 176.9761 0021977 121.5855 238.7523 15.08646782 84484 GRBAlpha 1 47959U 21022AD 22279.89698734 .00006954 00000-0 44896-3 0 9995 2 47959 97.5164 177.1294 0022030 121.6550 302.3280 15.08366441 83610 Orbicraft-Zorkiy 1 47960U 21022AE 22279.53442911 .00008515 00000-0 54581-3 0 9999 2 47960 97.5188 176.9593 0021451 122.2068 338.7022 15.08572444 84254 STECCO 1 47962U 21022AG 22279.85086512 .00012430 00000-0 74538-3 0 9992 2 47962 97.5153 178.2559 0016676 113.6732 311.0800 15.10980688 83680 DO-111 1 47963U 21022AH 22279.24662072 .00038723 00000-0 19575-2 0 9999 2 47963 97.5199 179.4793 0018359 106.5163 253.8089 15.16795787 83720 MO-110 1 47964U 21022AJ 22279.65580420 .00016473 00000-0 97310-3 0 9993 2 47964 97.5174 178.3999 0019919 111.4317 248.9040 15.11408050 83674 FEES 1 48082U 21022AL 22279.26860179 .00024388 00000-0 13995-2 0 9994 2 48082 97.5179 178.0667 0016125 108.4534 251.8451 15.12427423 83320 RamSat 1 48850U 98067SL 22279.23451963 .01293773 10739-2 14020-2 0 9993 2 48850 51.6248 102.2895 0008503 271.5518 88.4522 16.09402394 74867 TUBIN 1 48900U 21059X 22279.85680664 .00006207 00000-0 33852-3 0 9992 2 48900 97.5681 48.4105 0011390 81.2707 36.4021 15.14679993 70771 IT-SPINS 1 49017U 21013G 22279.28323793 .00023722 00000-0 85087-3 0 9994 2 49017 51.5949 228.5566 0009165 114.0995 246.0944 15.28545991 70724 LEDSAT 1 49069U 21073D 22279.18596816 .00008456 00000-0 52821-3 0 9991 2 49069 97.5157 349.8805 0024989 275.1390 84.6987 15.09455538 62533 CUTE 1 49263U 21088D 22279.14362538 .00009982 00000-0 72516-3 0 9999 2 49263 97.5777 344.8466 0020335 50.7774 309.5253 15.03889571 56056 TeikyoSat 4 1 49396U 21102B 22279.10594362 .00002806 00000-0 22437-3 0 9996 2 49396 97.5311 333.6760 0014986 242.1439 117.8268 15.00918380 49641 Z-Sat 1 49399U 21102E 22279.49955992 .00004161 00000-0 31279-3 0 9991 2 49399 97.5270 335.1886 0022515 209.6924 150.3025 15.02911232 49765 KOSEN 1 1 49402U 21102H 22279.14855275 .00004870 00000-0 35459-3 0 9992 2 49402 97.5191 335.0490 0021361 199.1794 160.8631 15.04054014 49743 HO-113 1 50466U 21131B 22279.53151327 .00000564 00000-0 19886-3 0 9998 2 50466 98.5739 356.6973 0005027 165.7904 194.3425 14.38538096 40884 Tevel 1 50999U 22002R 22279.44924760 .00012957 00000-0 67002-3 0 9998 2 50999 97.4699 344.7668 0012057 39.7768 92.8200 15.16323573 40237 Grizu-263a 1 51025U 22002AT 22279.15208203 .00033362 00000-0 15662-2 0 9991 2 51025 97.4876 345.7096 0012532 44.6888 315.5355 15.19490312 40232 NO-116 1 51031U 22002AZ 22278.15646577 .00021262 00000-0 10514-2 0 9994 2 51031 97.4831 344.2771 0013192 48.0466 312.1890 15.17772049 40063 IRIS-A 1 51044U 22002BN 22279.18525238 .00009907 00000-0 54373-3 0 9996 2 51044 97.4720 344.0573 0010086 49.4085 310.8023 15.14300834 40163 DELFI-PQ 1 51074U 22002CU 22279.74492331 .00024324 00000-0 11421-2 0 9994 2 51074 97.4958 346.8870 0014062 70.1454 290.1294 15.19535274 40341 SO-115 1 51080U 22002DA 22279.13493636 .00018705 00000-0 91575-3 0 9998 2 51080 97.4979 346.0628 0014292 72.9438 287.3360 15.18135674 40230 SO-114 1 51081U 22002DB 22279.13527099 .00018784 00000-0 91941-3 0 9994 2 51081 97.4969 346.0337 0014603 72.7191 287.5640 15.18139126 40236 OreSat0 1 52017U 22026K 22279.47462579 .00014440 00000-0 74057-3 0 9992 2 52017 97.5078 278.0083 0024597 247.6429 112.2196 15.16388991 31009 Planetum 1 1 52738U 22057G 22279.27252684 .00014473 00000-0 82090-3 0 9990 2 52738 97.5207 32.2260 0008728 143.8339 216.3483 15.13038683 20184 Foresail-1 1 52766U 22057AL 22279.58290448 .00008494 00000-0 46838-3 0 9991 2 52766 97.5312 32.9625 0014727 127.2775 5.1104 15.14132865 20249 SNUGLITE 2 1 52899U 22065F 22279.51187017 .00001049 00000-0 23566-3 0 9999 2 52899 98.0341 67.1288 0006985 291.5870 68.4636 14.58453922 13888 CTIM 1 52950U 22074G 22279.46536839 .00017583 00000-0 69048-3 0 9996 2 52950 45.0151 315.3070 0003365 48.9744 311.1436 15.25526087 14679 GREENCUBE 1 53106U 22080B 22276.55284936 -.00000003 00000-0 00000 0 0 9991 2 53106 70.1655 48.8724 0008696 239.2659 120.7144 6.42557820 5260 AstroBioCubeSat 1 53107U 22080C 22278.47890267 -.00000003 00000-0 00000-0 0 9996 2 53107 70.1640 48.2592 0013789 232.6370 127.2964 6.42111103 5293 CELESTA 1 53111U 22080G 22255.16019017 -.00000003 00000-0 00000 0 0 9997 2 53111 70.1086 56.1818 0009300 227.1361 132.8517 6.42544045 3765 RS4S 1 53306U 98067TR 22279.09215801 .00094873 00000-0 12877-2 0 9993 2 53306 51.6415 145.5756 0002541 250.2441 236.9761 15.56849208 11884 RS3S 1 53308U 98067TT 22279.51953052 .00100393 00000-0 13632-2 0 9994 2 53308 51.6388 143.4476 0003113 245.0684 114.9984 15.56809514 12012 RS1S 1 53309U 98067TU 22279.51503236 .00107567 00000-0 14449-2 0 9997 2 53309 51.6384 143.4150 0002823 258.9570 101.1104 15.57067946 11963 RS5S 1 53310U 98067TV 22279.51910909 .00101806 00000-0 13811-2 0 9990 2 53310 51.6388 143.4456 0002586 256.7142 103.3562 15.56829306 11995 RS6S 1 53311U 98067TW 22279.50821709 .00111393 00000-0 14805-2 0 9995 2 53311 51.6384 143.3684 0003496 238.4645 121.6005 15.57333412 12018 RS9S 1 53312U 98067TX 22279.51310954 .00105066 00000-0 14127-2 0 9999 2 53312 51.6390 143.4042 0002701 263.7326 96.3358 15.57052918 11950 RS12S 1 53313U 98067TY 22279.51102960 .00104566 00000-0 14044-2 0 9998 2 53313 51.6391 143.3904 0002331 257.0872 102.9860 15.57086157 12000 JAGSAT 1 53771U 98067UJ 22278.83460105 .00098926 00000-0 14530-2 0 9990 2 53771 51.6408 147.8701 0001973 322.3922 37.6930 15.54689506 4584 /EX
